Regional Weather Roundup
Issued by NWS Upton, NY

Current Version | Previous Version | Graphics & Text | Print | Product List | Glossary Off
Versions: 1 2 3 4 5 6 7 8 9 10 11 12 13 14 15 16 17 18 19 20 21 22 23 24 25 26 27 28 29 30 31 32 33 34 35 36 37 38 39 40 41 42 43 44 45 46 47 48 49 50

000
ASUS41 KOKX 240509
RWROKX

REGIONAL WEATHER ROUNDUP
NATIONAL WEATHER SERVICE NEW YORK NY
100 AM EDT SUN SEP 24 2017

NOTE: "FAIR" INDICATES FEW OR NO CLOUDS BELOW 12,000 FEET WITH NO
SIGNIFICANT WEATHER AND/OR OBSTRUCTIONS TO VISIBILITY.

NYZ071-072-176-178-NJZ106-104-240600-
NEW YORK CITY METRO AREA

CITY           SKY/WX    TMP DP  RH WIND       PRES   REMARKS
Central Park   CLEAR     73  56  54 CALM      30.07S
Bronx Bot Gard   N/A     72  57  60 NW1       30.06R
LaGuardia APRT CLEAR     74  60  61 N3        30.03S
Kennedy INTL   CLEAR     71  56  58 NE3       30.05R
Breezy Point     N/A     72 N/A N/A E3          N/A
Newark/Liberty CLEAR     75  56  51 CALM      30.04S
Teterboro      CLEAR     71  58  63 CALM      30.03F
$$

NYZ177-179-078>081-240600-
LONG ISLAND NEW YORK

CITY           SKY/WX    TMP DP  RH WIND       PRES   REMARKS
Jones Beach      N/A     68 N/A N/A SE5         N/A
Matinecock PT    N/A     72 N/A N/A W1          N/A
Farmingdale    CLEAR     67  64  90 CALM      30.04F
MacArthur/ISP  CLEAR     65  63  93 CALM      30.04S
Shirley        CLEAR     64  62  93 CALM      30.04S
Mt Sinai Harb    N/A    N/A N/A N/A S2          N/A
Westhampton    FOG       57  55  93 CALM      30.05F VSB 1/2
East Hampton   FAIR      56  55  96 CALM      30.03F
Montauk          N/A     60  59  96 CALM      30.04F
$$

NYZ052-065-067-240600-
HUDSON VALLEY

CITY           SKY/WX    TMP DP  RH WIND       PRES   REMARKS
White Plains   CLEAR     72  55  55 N7        30.05F
Larchmont Harb   N/A     72 N/A N/A N3          N/A
Croton On Huds   N/A     66 N/A N/A NE2         N/A
Newburgh       CLEAR     63  63 100 CALM      30.09S
Montgomery     CLEAR     61  59  93 CALM      30.07F
Poughkeepsie   CLEAR     60  58  92 CALM      30.06S
Albany         CLEAR     64  59  83 CALM      30.08S
$$

NJZ001-105-106-008-010-013-015-019>022-104-240600-
NEW JERSEY

CITY           SKY/WX    TMP DP  RH WIND       PRES   REMARKS
Newark/Liberty CLEAR     75  56  51 CALM      30.04S
Teterboro      CLEAR     71  58  63 CALM      30.03F
Caldwell       CLEAR     65  63  93 CALM      30.06F
Somerville     NOT AVBL
Linden         FAIR      71  58  64 CALM      30.04S
Perth Amboy      N/A     70 N/A N/A W3          N/A
Sussex         CLEAR     61  61 100 CALM      30.08S
Andover          N/A     61  60  97 CALM      30.09S
Trenton        CLEAR     65  61  87 N8        30.05S
Millville      CLEAR     64  63  96 CALM      30.03F
Atlantic City  CLEAR     63  61  93 CALM      30.03F
Wrightstown    CLEAR     65  63  92 CALM      30.02S
Toms River     CLEAR     61  59  93 CALM      30.05S
Belmar         CLEAR     66  61  84 CALM      30.05S
$$

PAZ047>061-062-071-240600-
EASTERN PENNSYLVANIA

CITY           SKY/WX    TMP DP  RH WIND       PRES   REMARKS
Philadelphia   CLEAR     74  59  59 CALM      30.04F
Allentown      CLEAR     67  61  81 CALM      30.08S
Scranton       CLEAR     64  61  90 SE3       30.12S
$$

CTZ002-004>006-009-010-012-RIZ004-006-007-MAZ004-011-015-240600-
SOUTHERN NEW ENGLAND
 IN CT

CITY           SKY/WX    TMP DP  RH WIND       PRES   REMARKS
Bradley INTL   CLEAR     62  59  90 NW3       30.05S
Hartford       CLEAR     64  62  93 CALM      30.04S
Danbury        CLEAR     61  57  87 CALM      30.08S
Wtrbury/Oxford CLEAR     63  58  83 N5        30.07F
Norwalk Harbor   N/A     70 N/A N/A N6          N/A
Bridgeport     CLEAR     68  60  75 N3        30.04S
Meriden        CLEAR     59  57  93 CALM      30.04F
New Haven      CLEAR     63  58  83 CALM      30.04F
Chester        FAIR      64  64 100 CALM      30.05S
Groton         CLEAR     62  61  96 N3        30.03S
Wilimantic     CLEAR     63  62  97 CALM      30.05S

 IN RI

CITY           SKY/WX    TMP DP  RH WIND       PRES   REMARKS
Providence     CLEAR     63  63 100 W3        30.04S
Block Island   FOG       61  60  97 CALM      30.03F VSB 1/4
Westerly       CLEAR     62  60  93 CALM      30.04S
 IN MA

CITY           SKY/WX    TMP DP  RH WIND       PRES   REMARKS
Boston         PTCLDY    62  61  96 CALM      30.03S
Worcester      CLEAR     67  54  63 NW7       30.07F
Westfield      CLEAR     62  59  90 CALM      30.05S
Provincetown   FOG       59  59 100 N5        30.03F VSB 1/2
Nantucket      FOG       62  62 100 N12       29.99F VSB 1/2
$$

ANZ330-335-338-340-345-350-353-355-240600-
COASTAL MARINE OBSERVATIONS


STATION/POSITION TIME  SKY/WX   TEMP    WIND        PRES    VSBY  WAVE
                                AIR SEA DIR/SP/G                  HT/PER
                 (UTC)          (F)     (DEG/KT/KT) (MB)    (MI)  (FT/S)
NY HARB ENTRANCE 0450            72 71  300/  4/  6 1016.5          4/13
20 S FIRE ISLAND 0350            68 67  170/  4/  6 1017.0          4/14
GREAT SOUTH BAY  0415            69 70  240/  2/  2   N/A
23 SSW MONTAUK P 0350            62 64              1017.1          5/14
15 E BARNEGAT LI 0430               70                N/A           5/13
HUDSON CANYON    0350            67 68  360/  2/  4 1016.3          5/13
KINGS POINT      0430            70 72  190/  2/  2 1017.9
EXECUTION ROCKS  0445            73      20/  4/  4   N/A
WESTERN LI SOUND NOT AVBL
CENTRAL LI SOUND NOT AVBL
EASTERN LI SOUND NOT AVBL
ROBBINS REEF     0430            78     350/ 10/ 11 1017.8
$$


>>>>>>>>>>>>>>>>>>>>>>>>>>>> KEY <<<<<<<<<<<<<<<<<<<<<<<<<<<
>                                                          <
>     SKY/WX - Sky Condition/Present Weather               <
>     TMP    - Temperature in Fahrenheit                   <
>     DP     - Dew Point in Fahrenheit                     <
>     RH     - Relative Humidity in Percent                <
>     WIND   - Direction (from) and Speed in MPH           <
>     PRES   - Mean Sea Level Pressure (inches of Hg)      <
>     WCI    - Wind Chill Index                            <
>     VSB    - VISIBILITY IN MILES                         <
>     HX     - HEAT INDEX                                  <
>     TC     - TEMPERATURE IN CELSIUS                      <
>     VRB    - VARIABLE WIND DIRECTION                     <
>                                                          <
>>>>>>>>>>>>>>>>>>>>>>>>>>>> KEY <<<<<<<<<<<<<<<<<<<<<<<<<<<



USA.gov is the U.S. government's official web portal to all federal, state and local government web resources and services.